Location: Bédeille
(43.0872°N, 1.1041°E)
Time: 07:35:02
(UTC+00:00)

ATLAS CENTAUR R/B - Pass Details

Date: 03 February 2023
Orbit: 450 x 653 km, 64.7° (Epoch: 19 March)

Event Time Altitude Azimuth Distance (km) Brightness Sun altitude
Rises 18:54:26 0° 277° (W) 2,966 6.6 -19.3°
Reaches altitude 10° 18:58:58 10° 318° (NW) 2,021 4.7 -20.1°
Maximum altitude 18:59:51 10° 329° (NNW) 1,981 4.5 -20.2°
Drops below altitude 10° 19:00:43 10° 340° (NNW) 2,003 4.4 -20.4°
Enters shadow 19:03:30 - 9° (N) 2,435 4.5 -20.9°
